STARLINK-3055 (49137 NORAD) Tracking and Keplerian Element Data

This shows tracking and keplerian element data for the satellite.

Feedback or suggestion? Click here.




ElementValue
Catalog49137
NameSTARLINK-3055
Epoch Orbit697
Epoch Day300.91667824
Epoch Year2021
RAAN3.7983
Inclination70.0003
Eccentricity0.0004198
Argument of Perigee289.0453
Mean Anonmoly141.4289
Mean Motion15.69743452
Decay Rate0.00024832
L11 49137U 21082H 21300.91667824 .00024832 00000-0 20919-3 0 9999
L22 49137 70.0003 3.7983 0004198 289.0453 141.4289 15.69743452 6976

Live tracking and technical data element details for STARLINK-3055 (NORAD 49137). STARLINK-3055 can be tracked NOW for your location showing map with azimuth and elevation plus other details from your city location.

Track the satellite on the map from your city or location and see movement details for azimuth, elevation, latitude, longitude, range, height, and movement on the map or in text.







IsCatalogInMostPopularTable: catalog: 49137, numindb: 7
Update: records affected: 1



GetName: 49137 STARLINK-3055

Hit Count: updated at: Thu, 28 Oct 2021 11:17:33 GMT